Time,TemperatureF,DewpointF,PressureIn,WindDirection,WindDirectionDegrees,WindSpeedMPH,WindSpeedGustMPH,Humidity,HourlyPrecipIn,Conditions,Clouds,dailyrainin,SolarRadiationWatts/m^2,SoftwareType,DateUTC
2013-11-27 00:05:00,27.4,24.6,30.02,NNW,327,3.0,3.0,89,0.00,,,0.00,0,Wunderground v.1.15,2013-11-27 05:05:00,
2013-11-27 00:10:00,27.3,24.5,30.03,NW,324,2.0,3.0,89,0.00,,,0.00,0,Wunderground v.1.15,2013-11-27 05:10:00,
2013-11-27 00:15:00,27.1,24.3,30.03,NW,318,1.0,1.0,89,0.00,,,0.00,0,Wunderground v.1.15,2013-11-27 05:15:00,
2013-11-27 00:20:00,27.1,24.6,30.03,NW,324,2.0,2.0,90,0.00,,,0.00,0,Wunderground v.1.15,2013-11-27 05:20:00,
2013-11-27 00:25:00,27.1,24.3,30.03,NW,312,2.0,2.0,89,0.00,,,0.00,0,Wunderground v.1.15,2013-11-27 05:25:00,
2013-11-27 00:30:00,27.1,24.6,30.02,NW,315,2.0,2.0,90,0.00,,,0.00,0,Wunderground v.1.15,2013-11-27 05:30:00,
2013-11-27 00:35:00,27.1,24.6,30.02,WNW,300,1.0,1.0,90,0.00,,,0.00,0,Wunderground v.1.15,2013-11-27 05:35:00,
2013-11-27 00:40:00,27.2,24.7,30.02,NW,318,1.0,3.0,90,0.00,,,0.00,0,Wunderground v.1.15,2013-11-27 05:40:00,
2013-11-27 00:50:00,27.7,24.9,30.02,NNW,327,3.0,4.0,89,0.00,,,0.00,0,Wunderground v.1.15,2013-11-27 05:50:00,
2013-11-27 00:55:00,27.9,24.8,30.02,NW,316,5.0,5.0,88,0.00,,,0.00,0,Wunderground v.1.15,2013-11-27 05:55:00,
2013-11-27 01:00:00,28.0,24.9,30.02,NW,318,5.0,5.0,88,0.00,,,0.00,0,Wunderground v.1.15,2013-11-27 06:00:00,
2013-11-27 01:05:00,28.1,24.7,30.01,NW,315,7.0,7.0,87,0.00,,,0.00,0,Wunderground v.1.15,2013-11-27 06:05:00,
2013-11-27 01:07:00,28.1,25.0,30.01,NNW,337,3.0,-999.0,87,-99.99,,,0.00,0,weatherlink.com 1.10,2013-11-27 06:07:00,
2013-11-27 01:15:00,28.0,24.6,30.01,NNW,328,6.0,7.0,87,0.00,,,0.00,0,Wunderground v.1.15,2013-11-27 06:15:00,
2013-11-27 01:20:00,27.9,24.8,30.01,NW,318,6.0,6.0,88,0.00,,,0.00,0,Wunderground v.1.15,2013-11-27 06:20:00,
2013-11-27 01:22:00,27.9,25.0,30.01,NNW,337,3.0,-999.0,88,-99.99,,,0.00,0,weatherlink.com 1.10,2013-11-27 06:22:00,
2013-11-27 01:30:00,27.9,24.8,30.01,NW,326,5.0,7.0,88,0.00,,,0.00,0,Wunderground v.1.15,2013-11-27 06:30:00,
2013-11-27 01:35:00,28.0,25.2,30.01,North,354,5.0,7.0,89,0.00,,,0.00,0,Wunderground v.1.15,2013-11-27 06:35:00,
2013-11-27 01:40:00,28.0,25.2,30.01,WNW,299,5.0,5.0,89,0.00,,,0.00,0,Wunderground v.1.15,2013-11-27 06:40:00,
2013-11-27 01:50:00,28.0,25.2,30.01,NW,305,6.0,8.0,89,0.00,,,0.00,0,Wunderground v.1.15,2013-11-27 06:50:00,
2013-11-27 01:55:00,27.9,25.1,30.01,NNW,333,6.0,8.0,89,0.00,,,0.00,0,Wunderground v.1.15,2013-11-27 06:55:00,
2013-11-27 02:00:00,27.9,25.1,30.01,NNW,343,7.0,7.0,89,0.00,,,0.00,0,Wunderground v.1.15,2013-11-27 07:00:00,
2013-11-27 02:05:00,27.8,25.0,30.01,NNW,330,7.0,10.0,89,0.00,,,0.00,0,Wunderground v.1.15,2013-11-27 07:05:00,
2013-11-27 02:10:00,27.5,24.7,30.02,NW,311,7.0,9.0,89,0.00,,,0.00,0,Wunderground v.1.15,2013-11-27 07:10:00,
2013-11-27 02:20:00,26.6,24.1,30.02,NW,305,8.0,8.0,90,0.00,,,0.00,0,Wunderground v.1.15,2013-11-27 07:20:00,
2013-11-27 02:25:00,26.4,24.1,30.02,West,276,8.0,8.0,91,0.00,,,0.00,0,Wunderground v.1.15,2013-11-27 07:25:00,
2013-11-27 02:30:00,26.2,23.9,30.02,WNW,301,7.0,7.0,91,0.00,,,0.00,0,Wunderground v.1.15,2013-11-27 07:30:00,
2013-11-27 02:35:00,26.1,23.8,30.02,NW,309,8.0,14.0,91,0.00,,,0.00,0,Wunderground v.1.15,2013-11-27 07:35:00,
2013-11-27 02:45:00,26.0,23.7,30.02,NW,317,7.0,8.0,91,0.00,,,0.00,0,Wunderground v.1.15,2013-11-27 07:45:00,
2013-11-27 02:50:00,26.0,23.7,30.02,WNW,288,7.0,7.0,91,0.00,,,0.00,0,Wunderground v.1.15,2013-11-27 07:50:00,
2013-11-27 02:55:00,26.0,23.5,30.02,NNW,348,8.0,9.0,90,0.00,,,0.00,0,Wunderground v.1.15,2013-11-27 07:55:00,
2013-11-27 03:00:00,26.0,23.5,30.02,NNW,328,9.0,14.0,90,0.00,,,0.00,0,Wunderground v.1.15,2013-11-27 08:00:00,
2013-11-27 03:07:00,26.0,23.0,30.02,NNW,334,9.0,-999.0,89,-99.99,,,0.00,0,weatherlink.com 1.10,2013-11-27 08:07:00,
2013-11-27 03:15:00,26.1,23.3,30.02,NNW,343,8.0,9.0,89,0.00,,,0.00,0,Wunderground v.1.15,2013-11-27 08:15:00,
2013-11-27 03:20:00,26.1,23.3,30.02,NNW,344,9.0,9.0,89,0.00,,,0.00,0,Wunderground v.1.15,2013-11-27 08:20:00,
2013-11-27 03:25:00,26.1,23.3,30.02,NW,324,7.0,9.0,89,0.00,,,0.00,0,Wunderground v.1.15,2013-11-27 08:25:00,
2013-11-27 03:30:00,26.0,23.2,30.02,WNW,303,7.0,8.0,89,0.00,,,0.00,0,Wunderground v.1.15,2013-11-27 08:30:00,
2013-11-27 03:37:00,26.0,23.0,30.02,NW,305,8.0,-999.0,89,-99.99,,,0.00,0,weatherlink.com 1.10,2013-11-27 08:37:00,
2013-11-27 03:45:00,25.6,23.3,30.02,NW,316,8.0,11.0,91,0.00,,,0.00,0,Wunderground v.1.15,2013-11-27 08:45:00,
2013-11-27 03:50:00,25.2,22.9,30.02,NNW,332,9.0,9.0,91,0.00,,,0.00,0,Wunderground v.1.15,2013-11-27 08:50:00,
2013-11-27 03:55:00,25.1,22.6,30.02,NNW,329,9.0,9.0,90,0.00,,,0.00,0,Wunderground v.1.15,2013-11-27 08:55:00,
2013-11-27 04:05:00,25.0,22.5,30.02,NNW,328,6.0,7.0,90,0.00,,,0.00,0,Wunderground v.1.15,2013-11-27 09:05:00,
2013-11-27 04:10:00,25.0,22.5,30.02,NNW,345,6.0,6.0,90,0.00,,,0.00,0,Wunderground v.1.15,2013-11-27 09:10:00,
2013-11-27 04:15:00,25.1,22.6,30.03,NW,320,6.0,8.0,90,0.00,,,0.00,0,Wunderground v.1.15,2013-11-27 09:15:00,
2013-11-27 04:22:00,25.1,22.0,30.03,NW,314,10.0,-999.0,89,-99.99,,,0.00,0,weatherlink.com 1.10,2013-11-27 09:22:00,
2013-11-27 04:30:00,25.4,22.3,30.03,North,354,7.0,8.0,88,0.00,,,0.00,0,Wunderground v.1.15,2013-11-27 09:30:00,
2013-11-27 04:35:00,25.6,22.0,30.03,NNW,327,9.0,9.0,86,0.00,,,0.00,0,Wunderground v.1.15,2013-11-27 09:35:00,
2013-11-27 04:40:00,25.6,21.4,30.03,NNW,341,9.0,9.0,84,0.00,,,0.00,0,Wunderground v.1.15,2013-11-27 09:40:00,
2013-11-27 04:45:00,25.6,21.4,30.03,NNE,12,9.0,9.0,84,0.00,,,0.00,0,Wunderground v.1.15,2013-11-27 09:45:00,
2013-11-27 04:52:00,25.6,21.0,30.04,North,4,10.0,-999.0,84,-99.99,,,0.00,0,weatherlink.com 1.10,2013-11-27 09:52:00,
2013-11-27 05:00:00,25.6,21.4,30.04,North,9,8.0,8.0,84,0.00,,,0.00,0,Wunderground v.1.15,2013-11-27 10:00:00,
2013-11-27 05:05:00,25.4,21.2,30.04,NNW,342,8.0,10.0,84,0.00,,,0.00,0,Wunderground v.1.15,2013-11-27 10:05:00,
2013-11-27 05:10:00,25.4,21.2,30.04,North,4,8.0,9.0,84,0.00,,,0.00,0,Wunderground v.1.15,2013-11-27 10:10:00,
2013-11-27 05:15:00,25.3,20.9,30.04,NNW,331,7.0,9.0,83,0.00,,,0.00,0,Wunderground v.1.15,2013-11-27 10:15:00,
2013-11-27 05:22:00,25.3,21.0,30.05,NNW,342,6.0,-999.0,84,-99.99,,,0.00,0,weatherlink.com 1.10,2013-11-27 10:22:00,
2013-11-27 05:30:00,25.2,21.0,30.05,NNW,328,5.0,5.0,84,0.00,,,0.00,0,Wunderground v.1.15,2013-11-27 10:30:00,
2013-11-27 05:37:00,25.2,21.0,30.05,NNW,347,6.0,-999.0,84,-99.99,,,0.00,0,weatherlink.com 1.10,2013-11-27 10:37:00,
2013-11-27 05:45:00,25.2,21.0,30.05,NNW,338,5.0,6.0,84,0.00,,,0.00,0,Wunderground v.1.15,2013-11-27 10:45:00,
2013-11-27 05:50:00,25.2,21.3,30.05,NW,323,4.0,4.0,85,0.00,,,0.00,0,Wunderground v.1.15,2013-11-27 10:50:00,
2013-11-27 05:55:00,25.2,21.3,30.05,NW,322,4.0,4.0,85,0.00,,,0.00,0,Wunderground v.1.15,2013-11-27 10:55:00,
2013-11-27 06:00:00,25.1,21.2,30.06,NNW,334,4.0,5.0,85,0.00,,,0.00,0,Wunderground v.1.15,2013-11-27 11:00:00,
2013-11-27 06:07:00,25.1,21.0,30.06,NW,310,5.0,-999.0,85,-99.99,,,0.00,0,weatherlink.com 1.10,2013-11-27 11:07:00,
2013-11-27 06:15:00,24.9,21.0,30.06,NW,320,5.0,6.0,85,0.00,,,0.00,0,Wunderground v.1.15,2013-11-27 11:15:00,
2013-11-27 06:20:00,24.9,21.3,30.06,NNW,343,5.0,5.0,86,0.00,,,0.00,0,Wunderground v.1.15,2013-11-27 11:20:00,
2013-11-27 06:25:00,24.8,21.2,30.07,NNW,343,4.0,5.0,86,0.00,,,0.00,0,Wunderground v.1.15,2013-11-27 11:25:00,
2013-11-27 06:35:00,24.7,21.1,30.07,NW,317,4.0,7.0,86,0.00,,,0.00,0,Wunderground v.1.15,2013-11-27 11:35:00,
2013-11-27 06:40:00,24.7,21.1,30.07,NNW,330,5.0,5.0,86,0.00,,,0.00,0,Wunderground v.1.15,2013-11-27 11:40:00,
2013-11-27 06:50:00,24.6,21.0,30.07,NW,326,5.0,5.0,86,0.00,,,0.00,0,Wunderground v.1.15,2013-11-27 11:50:00,
2013-11-27 06:55:00,24.6,21.0,30.08,NW,310,4.0,5.0,86,0.00,,,0.00,0,Wunderground v.1.15,2013-11-27 11:55:00,
2013-11-27 07:05:00,24.5,20.9,30.08,NNW,334,5.0,7.0,86,0.00,,,0.00,0,Wunderground v.1.15,2013-11-27 12:05:00,
2013-11-27 07:10:00,24.4,20.8,30.08,NW,307,5.0,5.0,86,0.00,,,0.00,0,Wunderground v.1.15,2013-11-27 12:10:00,
2013-11-27 07:15:00,24.3,20.4,30.08,NNW,327,5.0,7.0,85,0.00,,,0.00,0,Wunderground v.1.15,2013-11-27 12:15:00,
2013-11-27 07:22:00,24.0,20.0,30.09,NW,326,9.0,-999.0,85,-99.99,,,0.00,0,weatherlink.com 1.10,2013-11-27 12:22:00,
2013-11-27 07:30:00,23.9,20.3,30.09,NW,316,6.0,6.0,86,0.00,,,0.00,0,Wunderground v.1.15,2013-11-27 12:30:00,
2013-11-27 07:35:00,23.8,20.2,30.09,NW,316,6.0,6.0,86,0.00,,,0.00,0,Wunderground v.1.15,2013-11-27 12:35:00,
2013-11-27 07:40:00,23.6,20.3,30.09,North,354,5.0,5.0,87,0.00,,,0.00,0,Wunderground v.1.15,2013-11-27 12:40:00,
2013-11-27 07:45:00,23.5,20.2,30.09,NW,307,6.0,6.0,87,0.00,,,0.00,0,Wunderground v.1.15,2013-11-27 12:45:00,
2013-11-27 07:52:00,23.4,20.0,30.09,NW,313,3.0,-999.0,88,-99.99,,,0.00,0,weatherlink.com 1.10,2013-11-27 12:52:00,
2013-11-27 08:00:00,23.3,20.3,30.10,NNW,338,5.0,5.0,88,0.00,,,0.00,5,Wunderground v.1.15,2013-11-27 13:00:00,
2013-11-27 08:05:00,23.2,20.2,30.10,NW,314,5.0,5.0,88,0.00,,,0.00,9,Wunderground v.1.15,2013-11-27 13:05:00,
2013-11-27 08:10:00,23.2,20.4,30.10,North,359,5.0,5.0,89,0.00,,,0.00,11,Wunderground v.1.15,2013-11-27 13:10:00,
2013-11-27 08:20:00,23.2,20.4,30.11,NW,306,5.0,5.0,89,0.00,,,0.00,18,Wunderground v.1.15,2013-11-27 13:20:00,
2013-11-27 08:25:00,23.2,20.4,30.11,NW,304,5.0,5.0,89,0.00,,,0.00,25,Wunderground v.1.15,2013-11-27 13:25:00,
2013-11-27 08:30:00,23.3,20.5,30.11,NW,308,4.0,4.0,89,0.00,,,0.00,28,Wunderground v.1.15,2013-11-27 13:30:00,
2013-11-27 08:37:00,23.3,21.0,30.11,NW,322,3.0,-999.0,90,-99.99,,,0.00,35,weatherlink.com 1.10,2013-11-27 13:37:00,
2013-11-27 08:45:00,23.3,20.8,30.11,NNW,335,5.0,8.0,90,0.00,,,0.00,60,Wunderground v.1.15,2013-11-27 13:45:00,
2013-11-27 08:52:00,23.3,21.0,30.11,NNW,330,7.0,-999.0,89,-99.99,,,0.00,54,weatherlink.com 1.10,2013-11-27 13:52:00,
2013-11-27 09:00:00,23.4,20.6,30.11,North,4,5.0,5.0,89,0.00,,,0.00,95,Wunderground v.1.15,2013-11-27 14:00:00,
2013-11-27 09:05:00,23.5,20.5,30.12,NNW,345,6.0,6.0,88,0.00,,,0.00,125,Wunderground v.1.15,2013-11-27 14:05:00,
2013-11-27 09:15:00,23.9,20.6,30.12,North,4,7.0,10.0,87,0.00,,,0.00,142,Wunderground v.1.15,2013-11-27 14:15:00,
2013-11-27 09:22:00,24.1,21.0,30.12,NNW,336,6.0,-999.0,86,-99.99,,,0.00,176,weatherlink.com 1.10,2013-11-27 14:22:00,
2013-11-27 09:30:00,24.0,20.1,30.12,NNW,344,8.0,8.0,85,0.00,,,0.00,93,Wunderground v.1.15,2013-11-27 14:30:00,
2013-11-27 09:35:00,24.2,20.3,30.12,NW,324,6.0,8.0,85,0.00,,,0.00,88,Wunderground v.1.15,2013-11-27 14:35:00,
2013-11-27 09:40:00,24.2,20.3,30.12,NW,320,6.0,7.0,85,0.00,,,0.00,120,Wunderground v.1.15,2013-11-27 14:40:00,
2013-11-27 09:50:00,24.4,20.5,30.12,NNW,328,6.0,9.0,85,0.00,,,0.00,105,Wunderground v.1.15,2013-11-27 14:50:00,
2013-11-27 09:55:00,24.3,20.2,30.12,NNW,334,7.0,9.0,84,0.00,,,0.00,125,Wunderground v.1.15,2013-11-27 14:55:00,
2013-11-27 10:00:00,24.4,20.5,30.12,NNW,341,7.0,7.0,85,0.00,,,0.00,134,Wunderground v.1.15,2013-11-27 15:00:00,
2013-11-27 10:05:00,24.4,20.3,30.12,NNW,335,8.0,8.0,84,0.00,,,0.00,162,Wunderground v.1.15,2013-11-27 15:05:00,
2013-11-27 10:10:00,24.5,20.4,30.12,North,354,7.0,11.0,84,0.00,,,0.00,142,Wunderground v.1.15,2013-11-27 15:10:00,
2013-11-27 10:20:00,24.7,20.6,30.12,WNW,288,7.0,9.0,84,0.00,,,0.00,163,Wunderground v.1.15,2013-11-27 15:20:00,
2013-11-27 10:25:00,24.7,20.6,30.12,NW,306,6.0,9.0,84,0.00,,,0.00,146,Wunderground v.1.15,2013-11-27 15:25:00,
2013-11-27 10:30:00,24.8,20.7,30.12,WNW,298,6.0,7.0,84,0.00,,,0.00,155,Wunderground v.1.15,2013-11-27 15:30:00,
2013-11-27 10:35:00,24.7,20.3,30.12,WNW,288,7.0,7.0,83,0.00,,,0.00,167,Wunderground v.1.15,2013-11-27 15:35:00,
2013-11-27 10:40:00,24.9,20.8,30.12,NW,308,7.0,7.0,84,0.00,,,0.00,156,Wunderground v.1.15,2013-11-27 15:40:00,
2013-11-27 10:50:00,24.9,20.8,30.12,WNW,291,6.0,6.0,84,0.00,,,0.00,176,Wunderground v.1.15,2013-11-27 15:50:00,
2013-11-27 10:55:00,25.2,21.0,30.12,NW,313,7.0,10.0,84,0.00,,,0.00,243,Wunderground v.1.15,2013-11-27 15:55:00,
2013-11-27 11:00:00,25.1,20.7,30.12,NNW,332,8.0,10.0,83,0.00,,,0.00,262,Wunderground v.1.15,2013-11-27 16:00:00,
2013-11-27 11:05:00,25.1,20.7,30.13,NW,321,8.0,10.0,83,0.00,,,0.00,156,Wunderground v.1.15,2013-11-27 16:05:00,
2013-11-27 11:10:00,25.2,20.8,30.12,WNW,290,7.0,7.0,83,0.00,,,0.00,144,Wunderground v.1.15,2013-11-27 16:10:00,
2013-11-27 11:15:00,25.3,20.9,30.12,WNW,289,6.0,8.0,83,0.00,,,0.00,121,Wunderground v.1.15,2013-11-27 16:15:00,
2013-11-27 11:22:00,25.3,21.0,30.12,NW,310,5.0,-999.0,83,-99.99,,,0.00,139,weatherlink.com 1.10,2013-11-27 16:22:00,
2013-11-27 11:30:00,25.2,20.5,30.12,NW,323,7.0,7.0,82,0.00,,,0.00,178,Wunderground v.1.15,2013-11-27 16:30:00,
2013-11-27 11:35:00,25.2,20.5,30.12,WNW,296,8.0,8.0,82,0.00,,,0.00,181,Wunderground v.1.15,2013-11-27 16:35:00,
2013-11-27 11:40:00,25.4,20.4,30.12,NNW,327,7.0,7.0,81,0.00,,,0.00,269,Wunderground v.1.15,2013-11-27 16:40:00,
2013-11-27 11:45:00,25.8,21.1,30.11,North,354,7.0,7.0,82,0.00,,,0.00,199,Wunderground v.1.15,2013-11-27 16:45:00,
2013-11-27 11:55:00,25.7,21.0,30.11,WNW,295,7.0,15.0,82,0.00,,,0.00,77,Wunderground v.1.15,2013-11-27 16:55:00,
2013-11-27 12:00:00,25.2,20.5,30.11,West,260,7.0,10.0,82,0.00,,,0.00,121,Wunderground v.1.15,2013-11-27 17:00:00,
2013-11-27 12:07:00,25.3,21.0,30.10,West,268,12.0,-999.0,83,-99.99,,,0.00,206,weatherlink.com 1.10,2013-11-27 17:07:00,
2013-11-27 12:20:00,25.8,21.1,30.10,West,263,8.0,9.0,82,0.00,,,0.00,285,Wunderground v.1.15,2013-11-27 17:20:00,
2013-11-27 12:25:00,25.5,21.1,30.10,WNW,293,9.0,10.0,83,0.00,,,0.00,299,Wunderground v.1.15,2013-11-27 17:25:00,
2013-11-27 12:30:00,25.3,20.9,30.10,WSW,258,9.0,9.0,83,0.00,,,0.00,257,Wunderground v.1.15,2013-11-27 17:30:00,
2013-11-27 12:37:00,24.9,21.0,30.10,West,274,6.0,-999.0,84,-99.99,,,0.00,192,weatherlink.com 1.10,2013-11-27 17:37:00,
2013-11-27 12:45:00,24.8,21.2,30.10,West,275,9.0,10.0,86,0.00,,,0.00,128,Wunderground v.1.15,2013-11-27 17:45:00,
2013-11-27 12:50:00,24.5,20.9,30.10,West,261,9.0,10.0,86,0.00,,,0.00,125,Wunderground v.1.15,2013-11-27 17:50:00,
2013-11-27 12:55:00,24.6,21.3,30.10,West,280,8.0,10.0,87,0.00,,,0.00,195,Wunderground v.1.15,2013-11-27 17:55:00,
2013-11-27 13:00:00,24.9,21.6,30.10,WSW,249,7.0,7.0,87,0.00,,,0.00,207,Wunderground v.1.15,2013-11-27 18:00:00,
2013-11-27 13:05:00,25.2,21.9,30.10,NNW,337,8.0,8.0,87,0.00,,,0.00,236,Wunderground v.1.15,2013-11-27 18:05:00,
2013-11-27 13:15:00,25.5,22.2,30.10,WNW,283,8.0,12.0,87,0.00,,,0.00,169,Wunderground v.1.15,2013-11-27 18:15:00,
2013-11-27 13:22:00,25.3,21.0,30.10,West,262,4.0,-999.0,85,-99.99,,,0.00,167,weatherlink.com 1.10,2013-11-27 18:22:00,
2013-11-27 13:30:00,25.7,21.8,30.10,WNW,297,10.0,10.0,85,0.00,,,0.00,174,Wunderground v.1.15,2013-11-27 18:30:00,
2013-11-27 13:35:00,26.0,22.1,30.10,WNW,289,10.0,10.0,85,0.00,,,0.00,88,Wunderground v.1.15,2013-11-27 18:35:00,
2013-11-27 13:45:00,26.1,22.2,30.10,West,280,9.0,12.0,85,0.00,,,0.00,141,Wunderground v.1.15,2013-11-27 18:45:00,
2013-11-27 13:52:00,26.2,22.0,30.10,WNW,287,8.0,-999.0,84,-99.99,,,0.00,153,weatherlink.com 1.10,2013-11-27 18:52:00,
2013-11-27 14:00:00,26.3,22.1,30.10,WSW,256,10.0,10.0,84,0.00,,,0.00,90,Wunderground v.1.15,2013-11-27 19:00:00,
2013-11-27 14:05:00,26.6,22.4,30.10,NW,304,9.0,10.0,84,0.00,,,0.00,139,Wunderground v.1.15,2013-11-27 19:05:00,
2013-11-27 14:10:00,26.9,22.1,30.10,WNW,284,8.0,13.0,82,0.00,,,0.00,135,Wunderground v.1.15,2013-11-27 19:10:00,
2013-11-27 14:15:00,26.9,21.8,30.11,WNW,292,9.0,13.0,81,0.00,,,0.00,123,Wunderground v.1.15,2013-11-27 19:15:00,
2013-11-27 14:20:00,26.9,21.8,30.11,West,262,10.0,11.0,81,0.00,,,0.00,91,Wunderground v.1.15,2013-11-27 19:20:00,
2013-11-27 14:30:00,26.7,21.7,30.11,WNW,293,9.0,18.0,81,0.00,,,0.00,70,Wunderground v.1.15,2013-11-27 19:30:00,
2013-11-27 14:35:00,26.6,21.6,30.11,WNW,297,9.0,18.0,81,0.00,,,0.00,56,Wunderground v.1.15,2013-11-27 19:35:00,
2013-11-27 14:37:00,26.6,22.0,30.11,WNW,293,11.0,-999.0,81,-99.99,,,0.00,54,weatherlink.com 1.10,2013-11-27 19:37:00,
2013-11-27 14:45:00,26.3,21.3,30.12,WSW,253,9.0,10.0,81,0.00,,,0.00,62,Wunderground v.1.15,2013-11-27 19:45:00,
2013-11-27 14:52:00,26.1,21.0,30.12,WNW,291,11.0,-999.0,82,-99.99,,,0.00,86,weatherlink.com 1.10,2013-11-27 19:52:00,
2013-11-27 15:00:00,26.1,21.6,30.13,NW,306,10.0,10.0,83,0.00,,,0.00,62,Wunderground v.1.15,2013-11-27 20:00:00,
2013-11-27 15:05:00,26.1,21.6,30.12,WNW,294,10.0,14.0,83,0.00,,,0.00,62,Wunderground v.1.15,2013-11-27 20:05:00,
2013-11-27 15:10:00,26.1,21.4,30.13,West,280,11.0,11.0,82,0.00,,,0.00,56,Wunderground v.1.15,2013-11-27 20:10:00,
2013-11-27 15:15:00,26.2,21.7,30.13,WNW,287,10.0,11.0,83,0.00,,,0.00,54,Wunderground v.1.15,2013-11-27 20:15:00,
2013-11-27 15:22:00,26.2,22.0,30.13,WNW,294,9.0,-999.0,83,-99.99,,,0.00,58,weatherlink.com 1.10,2013-11-27 20:22:00,
2013-11-27 15:30:00,26.2,21.7,30.13,West,272,10.0,10.0,83,0.00,,,0.00,47,Wunderground v.1.15,2013-11-27 20:30:00,
2013-11-27 15:35:00,26.1,21.6,30.13,WNW,286,10.0,12.0,83,0.00,,,0.00,60,Wunderground v.1.15,2013-11-27 20:35:00,
2013-11-27 15:40:00,26.1,21.6,30.13,WNW,286,11.0,14.0,83,0.00,,,0.00,46,Wunderground v.1.15,2013-11-27 20:40:00,
2013-11-27 15:45:00,26.1,21.6,30.14,West,276,11.0,14.0,83,0.00,,,0.00,46,Wunderground v.1.15,2013-11-27 20:45:00,
2013-11-27 15:52:00,26.0,22.0,30.14,WNW,301,16.0,-999.0,83,-99.99,,,0.00,46,weatherlink.com 1.10,2013-11-27 20:52:00,
2013-11-27 16:00:00,26.1,21.6,30.14,West,280,12.0,16.0,83,0.00,,,0.00,44,Wunderground v.1.15,2013-11-27 21:00:00,
2013-11-27 16:05:00,26.0,21.5,30.14,NW,325,12.0,16.0,83,0.00,,,0.00,49,Wunderground v.1.15,2013-11-27 21:05:00,
2013-11-27 16:15:00,26.1,21.6,30.15,NW,309,11.0,13.0,83,0.00,,,0.00,42,Wunderground v.1.15,2013-11-27 21:15:00,
2013-11-27 16:22:00,26.1,22.0,30.16,WNW,291,11.0,-999.0,83,-99.99,,,0.00,25,weatherlink.com 1.10,2013-11-27 21:22:00,
2013-11-27 16:30:00,26.1,21.6,30.16,West,272,11.0,12.0,83,0.00,,,0.00,21,Wunderground v.1.15,2013-11-27 21:30:00,
2013-11-27 16:35:00,26.0,21.5,30.16,NW,310,9.0,12.0,83,0.00,,,0.00,18,Wunderground v.1.15,2013-11-27 21:35:00,
2013-11-27 16:45:00,26.1,21.6,30.16,West,275,8.0,9.0,83,0.00,,,0.00,14,Wunderground v.1.15,2013-11-27 21:45:00,
2013-11-27 16:50:00,26.1,21.4,30.17,WNW,299,9.0,13.0,82,0.00,,,0.00,11,Wunderground v.1.15,2013-11-27 21:50:00,
2013-11-27 16:55:00,26.2,21.5,30.17,WSW,250,11.0,13.0,82,0.00,,,0.00,9,Wunderground v.1.15,2013-11-27 21:55:00,
2013-11-27 17:00:00,26.2,21.2,30.17,NW,313,11.0,11.0,81,0.00,,,0.00,7,Wunderground v.1.15,2013-11-27 22:00:00,
2013-11-27 17:07:00,26.2,21.0,30.17,WNW,292,17.0,-999.0,81,-99.99,,,0.00,5,weatherlink.com 1.10,2013-11-27 22:07:00,
2013-11-27 17:15:00,26.2,21.2,30.17,West,263,10.0,16.0,81,0.00,,,0.00,5,Wunderground v.1.15,2013-11-27 22:15:00,
2013-11-27 17:20:00,26.1,21.1,30.17,WNW,296,10.0,15.0,81,0.00,,,0.00,0,Wunderground v.1.15,2013-11-27 22:20:00,
2013-11-27 17:25:00,26.1,21.1,30.18,NW,320,9.0,15.0,81,0.00,,,0.00,0,Wunderground v.1.15,2013-11-27 22:25:00,
2013-11-27 17:35:00,26.0,21.0,30.18,WNW,284,7.0,12.0,81,0.00,,,0.00,0,Wunderground v.1.15,2013-11-27 22:35:00,
2013-11-27 17:40:00,26.0,20.7,30.18,WNW,300,9.0,9.0,80,0.00,,,0.00,0,Wunderground v.1.15,2013-11-27 22:40:00,
2013-11-27 17:45:00,25.8,20.2,30.18,NW,310,9.0,9.0,79,0.00,,,0.00,0,Wunderground v.1.15,2013-11-27 22:45:00,
2013-11-27 17:50:00,25.7,20.1,30.19,WNW,287,9.0,9.0,79,0.00,,,0.00,0,Wunderground v.1.15,2013-11-27 22:50:00,
2013-11-27 18:00:00,25.6,19.4,30.19,WNW,291,8.0,9.0,77,0.00,,,0.00,0,Wunderground v.1.15,2013-11-27 23:00:00,
2013-11-27 18:05:00,25.6,19.1,30.19,West,266,9.0,9.0,76,0.00,,,0.00,0,Wunderground v.1.15,2013-11-27 23:05:00,
2013-11-27 18:10:00,25.5,18.7,30.19,WNW,287,9.0,9.0,75,0.00,,,0.00,0,Wunderground v.1.15,2013-11-27 23:10:00,
2013-11-27 18:15:00,25.4,18.6,30.20,NW,324,8.0,9.0,75,0.00,,,0.00,0,Wunderground v.1.15,2013-11-27 23:15:00,
2013-11-27 18:22:00,25.3,18.0,30.20,WNW,293,6.0,-999.0,75,-99.99,,,0.00,0,weatherlink.com 1.10,2013-11-27 23:22:00,
2013-11-27 18:30:00,25.3,18.2,30.20,WNW,289,7.0,10.0,74,0.00,,,0.00,0,Wunderground v.1.15,2013-11-27 23:30:00,
2013-11-27 18:35:00,25.2,18.1,30.20,WNW,297,9.0,13.0,74,0.00,,,0.00,0,Wunderground v.1.15,2013-11-27 23:35:00,
2013-11-27 18:40:00,25.2,18.4,30.20,West,266,9.0,12.0,75,0.00,,,0.00,0,Wunderground v.1.15,2013-11-27 23:40:00,
2013-11-27 18:45:00,25.1,18.0,30.20,WNW,289,8.0,12.0,74,0.00,,,0.00,0,Wunderground v.1.15,2013-11-27 23:45:00,
2013-11-27 18:52:00,25.1,18.0,30.21,West,272,7.0,-999.0,75,-99.99,,,0.00,0,weatherlink.com 1.10,2013-11-27 23:52:00,
2013-11-27 19:00:00,25.0,17.9,30.21,WNW,283,8.0,11.0,74,0.00,,,0.00,0,Wunderground v.1.15,2013-11-28 00:00:00,
2013-11-27 19:05:00,24.9,17.8,30.21,West,270,9.0,11.0,74,0.00,,,0.00,0,Wunderground v.1.15,2013-11-28 00:05:00,
2013-11-27 19:10:00,25.0,17.9,30.21,WNW,285,8.0,12.0,74,0.00,,,0.00,0,Wunderground v.1.15,2013-11-28 00:10:00,
2013-11-27 19:20:00,25.0,17.9,30.22,West,272,8.0,9.0,74,0.00,,,0.00,0,Wunderground v.1.15,2013-11-28 00:20:00,
2013-11-27 19:25:00,25.0,17.9,30.22,WSW,258,8.0,10.0,74,0.00,,,0.00,0,Wunderground v.1.15,2013-11-28 00:25:00,
2013-11-27 19:30:00,24.9,17.8,30.22,WNW,291,7.0,7.0,74,0.00,,,0.00,0,Wunderground v.1.15,2013-11-28 00:30:00,
2013-11-27 19:37:00,24.9,18.0,30.23,West,262,3.0,-999.0,74,-99.99,,,0.00,0,weatherlink.com 1.10,2013-11-28 00:37:00,
2013-11-27 19:45:00,24.8,17.7,30.23,SW,233,6.0,10.0,74,0.00,,,0.00,0,Wunderground v.1.15,2013-11-28 00:45:00,
2013-11-27 19:50:00,24.7,17.6,30.23,WSW,258,6.0,6.0,74,0.00,,,0.00,0,Wunderground v.1.15,2013-11-28 00:50:00,
2013-11-27 19:55:00,24.6,17.8,30.23,West,269,7.0,7.0,75,0.00,,,0.00,0,Wunderground v.1.15,2013-11-28 00:55:00,
2013-11-27 20:05:00,24.6,17.8,30.23,WSW,256,6.0,6.0,75,0.00,,,0.00,0,Wunderground v.1.15,2013-11-28 01:05:00,
2013-11-27 20:10:00,24.5,17.7,30.23,WSW,239,7.0,7.0,75,0.00,,,0.00,0,Wunderground v.1.15,2013-11-28 01:10:00,
2013-11-27 20:15:00,24.4,17.3,30.23,West,274,7.0,8.0,74,0.00,,,0.00,0,Wunderground v.1.15,2013-11-28 01:15:00,
2013-11-27 20:20:00,24.3,17.5,30.23,WSW,255,7.0,7.0,75,0.00,,,0.00,0,Wunderground v.1.15,2013-11-28 01:20:00,
2013-11-27 20:30:00,23.9,17.1,30.23,West,270,6.0,6.0,75,0.00,,,0.00,0,Wunderground v.1.15,2013-11-28 01:30:00,
2013-11-27 20:35:00,23.7,16.9,30.23,WSW,243,6.0,6.0,75,0.00,,,0.00,0,Wunderground v.1.15,2013-11-28 01:35:00,
2013-11-27 20:45:00,23.3,16.9,30.23,West,259,5.0,5.0,76,0.00,,,0.00,0,Wunderground v.1.15,2013-11-28 01:45:00,
2013-11-27 20:52:00,23.2,17.0,30.23,WSW,257,5.0,-999.0,76,-99.99,,,0.00,0,weatherlink.com 1.10,2013-11-28 01:52:00,
2013-11-27 21:00:00,23.1,16.4,30.23,SW,229,6.0,8.0,75,0.00,,,0.00,0,Wunderground v.1.15,2013-11-28 02:00:00,
2013-11-27 21:05:00,23.0,16.3,30.23,WSW,258,6.0,8.0,75,0.00,,,0.00,0,Wunderground v.1.15,2013-11-28 02:05:00,
2013-11-27 21:10:00,22.9,16.2,30.23,SW,236,6.0,6.0,75,0.00,,,0.00,0,Wunderground v.1.15,2013-11-28 02:10:00,
2013-11-27 21:15:00,22.8,16.1,30.24,WSW,255,6.0,6.0,75,0.00,,,0.00,0,Wunderground v.1.15,2013-11-28 02:15:00,
2013-11-27 21:22:00,22.6,16.0,30.23,WSW,249,6.0,-999.0,75,-99.99,,,0.00,0,weatherlink.com 1.10,2013-11-28 02:22:00,
2013-11-27 21:30:00,22.3,15.9,30.24,WSW,240,5.0,5.0,76,0.00,,,0.00,0,Wunderground v.1.15,2013-11-28 02:30:00,
2013-11-27 21:35:00,22.1,15.7,30.24,WSW,251,4.0,5.0,76,0.00,,,0.00,0,Wunderground v.1.15,2013-11-28 02:35:00,
2013-11-27 21:45:00,21.9,15.5,30.24,WSW,255,4.0,5.0,76,0.00,,,0.00,0,Wunderground v.1.15,2013-11-28 02:45:00,
2013-11-27 21:52:00,21.9,15.0,30.25,WSW,258,5.0,-999.0,76,-99.99,,,0.00,0,weatherlink.com 1.10,2013-11-28 02:52:00,
2013-11-27 22:00:00,21.9,15.5,30.25,WSW,255,5.0,6.0,76,0.00,,,0.00,0,Wunderground v.1.15,2013-11-28 03:00:00,
2013-11-27 22:05:00,21.9,15.5,30.25,WSW,258,5.0,6.0,76,0.00,,,0.00,0,Wunderground v.1.15,2013-11-28 03:05:00,
2013-11-27 22:15:00,21.8,15.4,30.25,WSW,244,5.0,6.0,76,0.00,,,0.00,0,Wunderground v.1.15,2013-11-28 03:15:00,
2013-11-27 22:20:00,21.8,15.1,30.25,WSW,258,5.0,6.0,75,0.00,,,0.00,0,Wunderground v.1.15,2013-11-28 03:20:00,
2013-11-27 22:25:00,21.8,15.1,30.25,WSW,257,5.0,6.0,75,0.00,,,0.00,0,Wunderground v.1.15,2013-11-28 03:25:00,
2013-11-27 22:30:00,21.8,14.8,30.26,WSW,243,5.0,5.0,74,0.00,,,0.00,0,Wunderground v.1.15,2013-11-28 03:30:00,
2013-11-27 22:35:00,21.8,14.8,30.26,WSW,244,5.0,5.0,74,0.00,,,0.00,0,Wunderground v.1.15,2013-11-28 03:35:00,
2013-11-27 22:45:00,21.8,14.8,30.26,WSW,249,4.0,5.0,74,0.00,,,0.00,0,Wunderground v.1.15,2013-11-28 03:45:00,
2013-11-27 22:50:00,21.8,14.8,30.26,WSW,255,5.0,5.0,74,0.00,,,0.00,0,Wunderground v.1.15,2013-11-28 03:50:00,
2013-11-27 22:55:00,21.8,14.8,30.26,WNW,285,5.0,5.0,74,0.00,,,0.00,0,Wunderground v.1.15,2013-11-28 03:55:00,
2013-11-27 23:00:00,21.7,14.7,30.27,WSW,256,4.0,6.0,74,0.00,,,0.00,0,Wunderground v.1.15,2013-11-28 04:00:00,
2013-11-27 23:05:00,21.6,14.6,30.27,West,260,4.0,6.0,74,0.00,,,0.00,0,Wunderground v.1.15,2013-11-28 04:05:00,
2013-11-27 23:15:00,21.5,14.5,30.27,West,260,4.0,4.0,74,0.00,,,0.00,0,Wunderground v.1.15,2013-11-28 04:15:00,
2013-11-27 23:20:00,21.5,14.5,30.27,WSW,256,5.0,5.0,74,0.00,,,0.00,0,Wunderground v.1.15,2013-11-28 04:20:00,
2013-11-27 23:25:00,21.5,14.8,30.28,WSW,254,5.0,5.0,75,0.00,,,0.00,0,Wunderground v.1.15,2013-11-28 04:25:00,
2013-11-27 23:30:00,21.5,14.8,30.28,WSW,258,5.0,5.0,75,0.00,,,0.00,0,Wunderground v.1.15,2013-11-28 04:30:00,
2013-11-27 23:37:00,21.6,15.0,30.28,West,268,7.0,-999.0,75,-99.99,,,0.00,0,weatherlink.com 1.10,2013-11-28 04:37:00,
2013-11-27 23:45:00,21.8,15.1,30.27,West,278,5.0,7.0,75,0.00,,,0.00,0,Wunderground v.1.15,2013-11-28 04:45:00,
2013-11-27 23:50:00,21.8,14.8,30.28,WSW,249,4.0,5.0,74,0.00,,,0.00,0,Wunderground v.1.15,2013-11-28 04:50:00,
2013-11-27 23:55:00,21.9,14.9,30.28,West,276,5.0,5.0,74,0.00,,,0.00,0,Wunderground v.1.15,2013-11-28 04:55:00,